[[{"header":{"parameterUnit":"m.s-1","parameterCategory":1,"la1":30.2991,"la2":30.254,"lo1":-89.0895,"lo2":-89.0444,"dy":0.0017,"dx":0.0017,"nx":28,"ny":28,"refTime":"2025-09-12T09:00:00:Z","depth":0,"parameterNumber":2,"parameterNumberName":"U-component_of_WINDS"},"data":[0,0,0,0,0,0,0,0,0,0,0,0,0,0,0,0,0,0,0,0,0,0,0,0,0,0,0,0,0,0,0,0,0,0,0,0,0,0,0,0,0,0,0,0,0,0,0,0,0,0,0,0,0,0,0,0,0,0,1.2788,1.2787,0,1.2699,1.2698,1.2697,1.2594,1.2593,1.2591,1.259,1.2497,1.2496,1.2495,0,0,0,0,0,0,0,0,0,0,0,0,0,1.2866,1.2865,1.2788,1.2787,1.2785,1.2699,1.2698,1.2697,1.2595,1.2593,1.2591,1.2589,1.2497,1.2496,1.2495,0,0,0,0,0,0,0,0,0,0,0,0,0,1.281,1.2865,1.2788,1.2724,1.2718,1.2699,1.2698,1.2696,1.2595,1.2593,1.2591,1.2588,1.2497,1.2496,1.2494,1.2531,0,0,1.249,1.2489,0,0,0,0,0,0,0,0,1.2813,1.2807,1.2735,1.2729,1.2721,1.2655,1.2691,1.2641,1.2596,1.2642,1.259,1.2587,1.2551,1.2545,1.2533,1.2526,1.2522,1.2489,1.2488,1.2488,1.2487,0,0,0,0,0,0,0,1.2817,1.2811,1.2752,1.2734,1.2726,1.2699,1.2689,1.2681,1.261,1.2637,1.263,1.2621,1.2547,1.2535,1.253,1.2521,1.2489,1.2488,1.2487,1.2486,1.2538,1.254,0,0,0,0,0,0,1.2831,1.2815,1.2755,1.275,1.2763,1.27,1.2688,1.2679,1.261,1.2598,1.2623,1.2616,1.2539,1.2532,1.2527,1.2565,1.2488,1.2486,1.2485,1.2536,1.2539,1.2541,0,0,0,0,0,0,1.2833,1.2827,1.2759,1.278,1.2769,1.2701,1.2691,1.2678,1.2666,1.2599,1.2586,1.2624,1.2537,1.2529,1.2531,1.256,1.2486,1.2484,1.2533,1.2537,1.254,1.2641,0,0,0,0,0,0,1.2836,1.2828,1.2842,1.2781,1.2769,1.2765,1.2693,1.2678,1.2664,1.2655,1.2597,1.2585,1.2535,1.2533,1.2529,1.2557,1.2483,1.253,1.2535,1.2539,1.2635,1.2648,1.2659,0,0,0,0,0,1.2839,1.2874,1.2844,1.2837,1.2785,1.2767,1.276,1.2702,1.2667,1.268,1.2637,1.2587,1.2557,1.2535,1.2529,1.2556,1.2528,1.2534,1.2539,1.263,1.2645,1.2658,0,0,0,0,0,0,1.294,1.2865,1.283,1.2846,1.2814,1.275,1.2765,1.2721,1.2697,1.2689,1.2617,1.2605,1.2615,1.2585,1.2561,1.2587,1.2535,1.254,1.2607,1.2621,1.2633,1.264,1.2482,0,0,0,0,0,1.2964,1.2957,1.2891,1.2912,1.2897,1.2834,1.2824,1.2783,1.2746,1.2731,1.2688,1.2654,1.2636,1.2627,1.2607,1.263,1.2615,1.2646,1.2657,1.2668,1.2672,1.2681,1.2694,1.2558,1.2558,1.2558,0,0,1.3014,1.2972,1.2971,1.2931,1.2901,1.2894,1.2823,1.2819,1.2814,1.273,1.273,1.2697,1.2653,1.2666,1.2669,1.2641,1.2706,1.2674,1.2683,1.2682,1.2688,1.2701,1.2713,1.2562,1.2561,1.2561,0,0,1.3101,1.3069,1.3082,1.3054,1.3009,1.2967,1.297,1.2913,1.2888,1.2886,1.2823,1.2815,1.2787,1.2758,1.274,1.2816,1.2769,1.2812,1.2874,1.2884,1.2895,1.2904,1.2931,1.2941,1.2816,1.2817,1.2817,0,1.3168,1.3157,1.3094,1.3095,1.3078,1.3003,1.3016,1.2991,1.2942,1.2932,1.2902,1.2865,1.2831,1.2835,1.2854,1.2841,1.2843,1.2819,1.2898,1.2907,1.2914,1.2939,1.295,1.2822,1.2822,1.2821,1.282,0,1.3242,1.3235,1.325,1.3207,1.3192,1.3198,1.3136,1.3128,1.3088,1.3048,1.3047,1.3002,1.2973,1.297,1.293,1.2969,1.2953,1.2912,1.2858,1.2934,1.2956,1.2965,1.283,1.2828,1.2826,1.2825,0,0,1.3391,1.3312,1.3319,1.3298,1.3243,1.3236,1.3238,1.321,1.3205,1.3173,1.3173,1.3151,1.3112,1.3092,1.3047,1.3056,1.3119,1.3013,1.3011,1.3035,1.3159,1.3191,1.3203,1.3087,1.3089,1.309,1.3162,0,1.3469,1.347,1.3413,1.343,1.3422,1.335,1.3352,1.3318,1.3281,1.3268,1.3226,1.3212,1.3162,1.3149,1.3154,1.3111,1.3143,1.3104,1.3086,1.3086,1.31,1.3215,1.3249,1.332,1.3171,1.3172,1.3173,0,1.356,1.3535,1.3551,1.3495,1.349,1.3493,1.3462,1.3451,1.341,1.3383,1.336,1.331,1.3307,1.3256,1.3251,1.3226,1.3215,1.3192,1.3193,1.319,1.3135,1.3215,1.3341,1.3352,1.3186,1.3185,1.3184,0,1.3668,1.3638,1.3643,1.3627,1.3562,1.3566,1.3539,1.3496,1.3483,1.3455,1.3445,1.3418,1.3403,1.3382,1.3325,1.3293,1.3326,1.3271,1.3303,1.3305,1.3314,1.3314,1.344,1.3306,1.3306,1.3306,1.3305,0,1.3761,1.3774,1.3691,1.3695,1.3706,1.3641,1.3654,1.3619,1.3582,1.3577,1.3512,1.3508,1.3433,1.342,1.3375,1.3378,1.3371,1.3348,1.3337,1.3355,1.3358,1.3347,1.3341,1.3308,1.3308,1.3307,1.3307,0,1.3884,1.3829,1.3831,1.3769,1.3753,1.3765,1.3711,1.3712,1.367,1.3664,1.3659,1.3594,1.3576,1.3517,1.3484,1.3453,1.347,1.3446,1.3484,1.3476,1.3512,1.351,1.3636,1.3649,1.3507,1.3508,1.3509,0,1.3948,1.3956,1.3895,1.3888,1.3864,1.3852,1.3838,1.3773,1.3761,1.3715,1.3721,1.3697,1.3676,1.365,1.3599,1.3573,1.3549,1.3595,1.3544,1.3562,1.355,1.355,1.3551,1.3606,1.3608,1.3609,1.3611,0,1.4067,1.4039,1.4022,1.3995,1.398,1.3955,1.3927,1.3924,1.3851,1.3841,1.3822,1.3805,1.3771,1.3749,1.3715,1.3685,1.3636,1.3627,1.3633,1.3652,1.3674,1.3663,1.3515,1.3624,1.3623,1.3622,1.3621,1.3621,1.4162,1.4166,1.4124,1.4107,1.4078,1.4053,1.4051,1.4009,1.3992,1.3961,1.3923,1.3908,1.3866,1.3815,1.379,1.3777,1.375,1.3759,1.3761,1.3764,1.3773,1.3675,1.377,1.3769,1.3769,1.3769,1.3768,0,1.4278,1.4248,1.4232,1.4195,1.4181,1.4136,1.4102,1.4093,1.4082,1.4047,1.4027,1.4005,1.3983,1.393,1.3902,1.3902,1.3879,1.3897,1.3897,1.3891,1.3799,1.3796,1.3917,1.3917,1.3917,1.3917,1.3917,1.3916,1.4337,1.4341,1.4309,1.4298,1.4266,1.4252,1.4237,1.4213,1.4185,1.4164,1.4145,1.4111,1.4069,1.4038,1.4015,1.4,1.3993,1.4019,1.3996,1.3911,1.3897,1.3884,1.3881,1.4018,1.4018,1.409,1.409,1.4091]},{"header":{"parameterUnit":"m.s-1","parameterCategory":1,"la1":30.2991,"la2":30.254,"lo1":-89.0895,"lo2":-89.0444,"dy":0.0017,"dx":0.0017,"nx":28,"ny":28,"refTime":"2025-09-12T09:00:00:Z","depth":0,"parameterNumber":3,"parameterNumberName":"V-component_of_WINDS"},"data":[0,0,0,0,0,0,0,0,0,0,0,0,0,0,0,0,0,0,0,0,0,0,0,0,0,0,0,0,0,0,0,0,0,0,0,0,0,0,0,0,0,0,0,0,0,0,0,0,0,0,0,0,0,0,0,0,0,0,-1.3325,-1.3326,0,-1.3415,-1.3416,-1.3417,-1.3471,-1.3471,-1.3471,-1.3471,-1.3561,-1.3563,-1.3565,0,0,0,0,0,0,0,0,0,0,0,0,0,-1.32,-1.3202,-1.3325,-1.3327,-1.3328,-1.3415,-1.3416,-1.3417,-1.3471,-1.3471,-1.3471,-1.3471,-1.356,-1.3563,-1.3565,0,0,0,0,0,0,0,0,0,0,0,0,0,-1.3269,-1.3203,-1.3325,-1.3365,-1.3369,-1.3414,-1.3416,-1.3417,-1.347,-1.3471,-1.3471,-1.3472,-1.356,-1.3563,-1.3566,-1.3578,0,0,-1.3576,-1.3577,0,0,0,0,0,0,0,0,-1.3265,-1.3273,-1.3358,-1.3362,-1.3367,-1.3432,-1.3405,-1.3471,-1.347,-1.3432,-1.3471,-1.3472,-1.3518,-1.3524,-1.354,-1.3582,-1.3586,-1.3576,-1.3578,-1.3579,-1.358,0,0,0,0,0,0,0,-1.326,-1.327,-1.3361,-1.3359,-1.3365,-1.3378,-1.3388,-1.3418,-1.3471,-1.3435,-1.3439,-1.3449,-1.352,-1.3537,-1.3543,-1.3587,-1.3576,-1.3579,-1.3581,-1.3582,-1.3645,-1.3644,0,0,0,0,0,0,-1.3249,-1.3265,-1.3358,-1.3363,-1.3316,-1.338,-1.3391,-1.3411,-1.3471,-1.3481,-1.3449,-1.3452,-1.3531,-1.3539,-1.3546,-1.3565,-1.3579,-1.3582,-1.3584,-1.3645,-1.3645,-1.3644,0,0,0,0,0,0,-1.3246,-1.3257,-1.3354,-1.3316,-1.3329,-1.3382,-1.3403,-1.3412,-1.3429,-1.3482,-1.3491,-1.3456,-1.3532,-1.3542,-1.357,-1.3568,-1.3584,-1.3587,-1.3645,-1.3645,-1.3644,-1.3601,0,0,0,0,0,0,-1.3242,-1.3255,-1.326,-1.3315,-1.3331,-1.3377,-1.3403,-1.3414,-1.3435,-1.3439,-1.3491,-1.35,-1.3533,-1.3565,-1.3573,-1.3573,-1.3589,-1.3645,-1.3645,-1.3644,-1.3603,-1.3599,-1.3596,0,0,0,0,0,-1.3238,-1.3244,-1.326,-1.3271,-1.3338,-1.3376,-1.3385,-1.3424,-1.3434,-1.344,-1.3474,-1.3498,-1.3567,-1.3567,-1.3577,-1.3578,-1.3646,-1.3645,-1.3645,-1.3604,-1.36,-1.3596,0,0,0,0,0,0,-1.3187,-1.3252,-1.3271,-1.3295,-1.333,-1.3385,-1.3393,-1.3418,-1.3449,-1.3452,-1.3498,-1.3509,-1.3533,-1.3559,-1.3557,-1.3593,-1.3609,-1.3611,-1.3576,-1.3572,-1.3569,-1.3561,-1.3592,0,0,0,0,0,-1.3179,-1.3205,-1.326,-1.3276,-1.3293,-1.334,-1.3358,-1.3385,-1.3422,-1.3437,-1.3473,-1.3508,-1.3538,-1.3557,-1.3587,-1.3607,-1.362,-1.3613,-1.361,-1.3607,-1.3607,-1.362,-1.3618,-1.3642,-1.3642,-1.3642,0,0,-1.3162,-1.3201,-1.3214,-1.3267,-1.3297,-1.3323,-1.3352,-1.3377,-1.3397,-1.3441,-1.347,-1.3498,-1.354,-1.3565,-1.3577,-1.3587,-1.3603,-1.3606,-1.3603,-1.3605,-1.3619,-1.3617,-1.3615,-1.3642,-1.3642,-1.3642,0,0,-1.3144,-1.3176,-1.3193,-1.3223,-1.3269,-1.33,-1.3304,-1.3357,-1.3377,-1.3407,-1.3441,-1.3465,-1.3515,-1.3544,-1.3565,-1.356,-1.3583,-1.3568,-1.355,-1.3563,-1.3561,-1.356,-1.3558,-1.3556,-1.3569,-1.3569,-1.3569,0,-1.3116,-1.3157,-1.3199,-1.3223,-1.3245,-1.3288,-1.3305,-1.3332,-1.3385,-1.3399,-1.341,-1.3474,-1.3506,-1.3538,-1.3537,-1.3553,-1.3559,-1.3562,-1.3558,-1.3557,-1.3556,-1.3555,-1.3554,-1.3567,-1.3567,-1.3567,-1.3567,0,-1.3121,-1.3148,-1.3157,-1.3208,-1.3231,-1.3252,-1.3297,-1.3316,-1.3341,-1.3372,-1.3403,-1.3442,-1.3481,-1.3491,-1.3516,-1.3527,-1.3532,-1.3549,-1.3566,-1.3551,-1.3551,-1.355,-1.3563,-1.3564,-1.3565,-1.3565,0,0,-1.3072,-1.3147,-1.3149,-1.3173,-1.3227,-1.3249,-1.3272,-1.3312,-1.3327,-1.3362,-1.3382,-1.3425,-1.3442,-1.3466,-1.3494,-1.3505,-1.3499,-1.3522,-1.3524,-1.3516,-1.3515,-1.35,-1.3499,-1.3516,-1.3516,-1.3516,-1.3511,0,-1.3061,-1.3105,-1.3144,-1.3173,-1.3199,-1.3241,-1.3261,-1.3296,-1.3326,-1.3352,-1.3385,-1.3414,-1.3434,-1.3449,-1.3462,-1.3497,-1.3499,-1.3498,-1.3534,-1.3535,-1.3522,-1.3499,-1.3484,-1.3477,-1.3511,-1.3511,-1.3511,0,-1.3054,-1.3089,-1.312,-1.3173,-1.3186,-1.3203,-1.3243,-1.3267,-1.3309,-1.333,-1.3357,-1.3387,-1.3414,-1.3429,-1.3466,-1.3464,-1.3482,-1.3501,-1.3502,-1.3506,-1.3521,-1.3502,-1.3476,-1.3475,-1.3511,-1.3511,-1.3511,0,-1.3014,-1.3069,-1.3095,-1.3115,-1.3177,-1.3188,-1.3214,-1.3256,-1.3278,-1.3313,-1.3327,-1.3364,-1.3384,-1.3413,-1.3452,-1.3459,-1.3485,-1.3503,-1.3503,-1.3502,-1.3505,-1.3504,-1.3481,-1.3518,-1.3518,-1.3518,-1.3518,0,-1.2998,-1.3015,-1.3079,-1.3094,-1.3116,-1.3162,-1.3181,-1.3211,-1.3249,-1.3271,-1.331,-1.333,-1.3381,-1.3408,-1.3439,-1.3465,-1.3474,-1.3492,-1.35,-1.3488,-1.3485,-1.3499,-1.35,-1.3518,-1.3518,-1.3518,-1.3518,0,-1.2956,-1.2999,-1.3031,-1.3088,-1.3102,-1.3116,-1.3164,-1.3181,-1.3214,-1.3242,-1.3252,-1.3303,-1.3336,-1.3379,-1.3426,-1.3447,-1.3469,-1.3482,-1.3455,-1.346,-1.3457,-1.3456,-1.3441,-1.3441,-1.3478,-1.3477,-1.3477,0,-1.2942,-1.2957,-1.3016,-1.3034,-1.306,-1.3088,-1.3111,-1.3157,-1.3179,-1.3228,-1.3239,-1.3276,-1.3308,-1.336,-1.3401,-1.3437,-1.345,-1.3443,-1.3456,-1.3444,-1.345,-1.3448,-1.345,-1.3439,-1.3438,-1.3438,-1.3437,0,-1.2913,-1.2934,-1.2965,-1.3004,-1.303,-1.3063,-1.3097,-1.311,-1.3163,-1.3186,-1.3221,-1.3246,-1.3295,-1.333,-1.3373,-1.34,-1.3427,-1.3433,-1.3435,-1.3422,-1.3406,-1.3414,-1.3445,-1.3433,-1.3433,-1.3433,-1.3434,-1.3434,-1.2884,-1.2899,-1.2944,-1.2977,-1.3009,-1.304,-1.306,-1.3095,-1.3126,-1.3169,-1.3195,-1.3229,-1.3271,-1.3331,-1.3357,-1.3385,-1.3395,-1.3398,-1.3398,-1.3398,-1.3394,-1.3403,-1.3393,-1.3393,-1.3393,-1.3393,-1.3393,0,-1.2856,-1.2887,-1.2918,-1.2965,-1.2992,-1.3017,-1.3057,-1.3078,-1.3107,-1.3145,-1.3176,-1.3217,-1.3252,-1.3297,-1.3336,-1.3349,-1.3363,-1.3358,-1.3357,-1.3363,-1.3383,-1.3377,-1.3346,-1.3346,-1.3346,-1.3346,-1.3346,-1.3346,-1.2844,-1.2872,-1.2898,-1.2942,-1.2973,-1.3007,-1.3028,-1.3058,-1.3088,-1.3132,-1.3162,-1.3191,-1.3232,-1.3274,-1.3308,-1.3321,-1.3333,-1.3324,-1.334,-1.3357,-1.3361,-1.3365,-1.336,-1.3326,-1.3326,-1.3317,-1.3317,-1.3317]}]]